Weather History for Kalmar, Sweden

Change the Weather History Date:

Monday, April 29, 2013

  Actual Average Record
Temperature  
Mean Temperature 47 °F -  
Max Temperature 57 °F - - ()
Min Temperature 37 °F - - ()
Degree Days  
Heating Degree Days 18    
Moisture  
Dew Point 37 °F    
Average Humidity 74    
Maximum Humidity 93    
Minimum Humidity 41    
Precipitation  
Precipitation 0.00 in - - ()
Sea Level Pressure  
Sea Level Pressure 29.86 in    
Wind  
Wind Speed 11 mph ()    
Max Wind Speed 21 mph    
Max Gust Speed -    
Visibility 6.2 miles    
Events      
T = Trace of Precipitation, MM = Missing Value Source: Averaged Metar Reports

Daily Weather History Graph

Daily Weather History Graph

Search for Another Location

Airport:

Trip Planner

Search our weather history database for the weather conditions in past years. The results will help you decide how hot, cold, wet, or windy it might be!

Date:

Astronomy

Apr. 29, 2013 Rise Set
Actual Time 5:12 AM CEST 8:33 PM CEST
Civil Twilight 4:27 AM CEST 9:18 PM CEST
Nautical Twilight 3:25 AM CEST 10:21 PM CEST
Astronomical Twilight 1:44 AM CEST 12:10 AM CEST
Moon 12:07 AM CEST (4/29) 7:51 AM CEST (4/29)
Length of Visible Light 16h 51m
Length of Day
15h 20m
Waning Gibbous, 82% of the Moon is Illuminated
Apr 29
Waning Gibbous
May 2
Last Quarter
May 10
New
May 18
First Quarter
May 25
Full

Hourly Weather History & Observations

Time (CEST) Temp. Windchill Dew Point Humidity Pressure Visibility Wind Dir Wind Speed Gust Speed Precip Events Conditions
12:20 AM 41.0 °F 36.4 °F 33.8 °F 76% 29.95 in 6.2 mi SW 6.9 mph - N/A   Unknown
12:50 AM 39.2 °F 35.0 °F 33.8 °F 81% 29.95 in 6.2 mi SSW 5.8 mph - N/A   Unknown
1:20 AM 39.2 °F 34.2 °F 33.8 °F 81% 29.95 in 6.2 mi SW 6.9 mph - N/A   Unknown
1:50 AM 37.4 °F 32.8 °F 33.8 °F 87% 29.95 in 6.2 mi SSW 5.8 mph - N/A   Unknown
2:20 AM 37.4 °F 32.8 °F 35.6 °F 93% 29.95 in 6.2 mi South 5.8 mph - N/A   Unknown
2:50 AM 39.2 °F 34.2 °F 35.6 °F 87% 29.95 in 6.2 mi SSW 6.9 mph - N/A   Unknown
3:20 AM 39.2 °F 35.0 °F 33.8 °F 81% 29.95 in 6.2 mi South 5.8 mph - N/A   Unknown
3:50 AM 39.2 °F 34.2 °F 32.0 °F 75% 29.95 in 6.2 mi South 6.9 mph - N/A   Unknown
4:20 AM 39.2 °F 33.6 °F 33.8 °F 81% 29.95 in 6.2 mi South 8.1 mph - N/A   Unknown
4:50 AM 41.0 °F 34.3 °F 37.4 °F 87% 29.92 in 6.2 mi South 11.5 mph - N/A   Unknown
5:20 AM 41.0 °F 34.3 °F 37.4 °F 87% 29.92 in 6.2 mi South 11.5 mph - N/A   Unknown
5:50 AM 41.0 °F 33.5 °F 37.4 °F 87% 29.92 in - South 13.8 mph - N/A   Clear
6:20 AM 41.0 °F 33.9 °F 37.4 °F 87% 29.89 in - South 12.7 mph - N/A   Clear
6:50 AM 42.8 °F 36.2 °F 37.4 °F 81% 29.89 in - South 12.7 mph - N/A   Clear
7:20 AM 42.8 °F 35.4 °F 37.4 °F 81% 29.89 in - South 15.0 mph - N/A   Clear
7:50 AM 42.8 °F 36.2 °F 37.4 °F 81% 29.89 in - South 12.7 mph - N/A   Clear
8:20 AM 42.8 °F 35.8 °F 37.4 °F 81% 29.89 in - South 13.8 mph - N/A   Clear
8:50 AM 42.8 °F 35.4 °F 39.2 °F 87% 29.86 in - South 15.0 mph - N/A   Clear
9:20 AM 42.8 °F 35.1 °F 39.2 °F 87% 29.86 in - SSE 16.1 mph - N/A   Clear
9:50 AM 42.8 °F 35.4 °F 39.2 °F 87% 29.86 in - South 15.0 mph - N/A   Clear
10:20 AM 44.6 °F 37.2 °F 39.2 °F 81% 29.83 in - South 17.3 mph - N/A   Clear
10:50 AM 44.6 °F 37.4 °F 41.0 °F 87% 29.86 in 6.2 mi South 16.1 mph - N/A   Scattered Clouds
11:20 AM 46.4 °F 39.8 °F 41.0 °F 81% 29.83 in 6.2 mi South 16.1 mph - N/A   Scattered Clouds
11:50 AM 46.4 °F 39.2 °F 41.0 °F 81% 29.83 in - South 18.4 mph - N/A   Clear
12:20 PM 48.2 °F - 42.8 °F 82% 29.83 in - South 15.0 mph - N/A   Clear
12:50 PM 48.2 °F - 42.8 °F 82% 29.83 in 6.2 mi South 19.6 mph - N/A   Scattered Clouds
1:20 PM 46.4 °F 38.7 °F 42.8 °F 87% 29.80 in 6.2 mi South 20.7 mph - N/A   Scattered Clouds
1:50 PM 50.0 °F - 42.8 °F 76% 29.80 in 6.2 mi South 17.3 mph - N/A   Scattered Clouds
2:20 PM 53.6 °F - 41.0 °F 62% 29.80 in - South 17.3 mph - N/A   Clear
2:50 PM 53.6 °F - 35.6 °F 51% 29.77 in - South 18.4 mph - N/A   Clear
3:20 PM 55.4 °F - 33.8 °F 44% 29.77 in - South 18.4 mph - N/A   Clear
3:50 PM 57.2 °F - 33.8 °F 41% 29.77 in - South 15.0 mph - N/A   Clear
4:20 PM 53.6 °F - 33.8 °F 47% 29.77 in - SSW 16.1 mph - N/A   Clear
4:50 PM 53.6 °F - 33.8 °F 47% 29.77 in - SW 18.4 mph - N/A   Clear
5:20 PM 53.6 °F - 33.8 °F 47% 29.77 in - SW 19.6 mph - N/A   Clear
5:50 PM 53.6 °F - 35.6 °F 51% 29.80 in - WSW 17.3 mph - N/A   Clear
6:20 PM 51.8 °F - 35.6 °F 54% 29.77 in 6.2 mi WSW 13.8 mph - N/A   Scattered Clouds
6:50 PM 51.8 °F - 35.6 °F 54% 29.77 in 6.2 mi SW 13.8 mph - N/A   Scattered Clouds
7:20 PM 50.0 °F - 35.6 °F 58% 29.80 in - WSW 15.0 mph - N/A   Clear
7:50 PM 48.2 °F - 37.4 °F 66% 29.80 in - SW 13.8 mph - N/A   Clear
8:20 PM 48.2 °F - 37.4 °F 66% 29.80 in - SW 12.7 mph - N/A   Clear
8:50 PM 46.4 °F 41.1 °F 37.4 °F 71% 29.83 in - SW 11.5 mph - N/A   Clear
9:20 PM 46.4 °F 40.4 °F 37.4 °F 71% 29.83 in 6.2 mi WSW 13.8 mph - N/A   Mostly Cloudy
9:50 PM 46.4 °F 42.4 °F 37.4 °F 71% 29.86 in 6.2 mi WSW 8.1 mph - N/A   Scattered Clouds
10:20 PM 44.6 °F 40.7 °F 37.4 °F 76% 29.86 in 6.2 mi SW 6.9 mph - N/A   Partly Cloudy
10:50 PM 44.6 °F 40.2 °F 37.4 °F 76% 29.86 in - SSW 8.1 mph - N/A   Clear
11:20 PM 42.8 °F 37.5 °F 37.4 °F 81% 29.86 in 6.2 mi SSW 9.2 mph - N/A   Unknown
11:50 PM 42.8 °F 38.0 °F 37.4 °F 81% 29.86 in 6.2 mi SW 8.1 mph - N/A   Unknown